Overview Statistics Trail Chart Weather Telemetry Raw packets
 

This is the latest recevied weather packets stored in our database for station/object KQ7A. If no packets are shown the sender has not sent any weather packets the latest 10 day(s).

<< 29 30 31 32 33 34 35 >>
Time Temp. Humidity Pressure Rain* Wind** Luminosity Snow
1788480345 18.33° C 43% 1013.1 hPa 0 mm - 138 W/m² -
1788480041 18.89° C 42% 1013.2 hPa 0 mm - 143 W/m² -
1788479736 18.33° C 42% 1013.3 hPa 0 mm - 160 W/m² -
1788479432 18.89° C 42% 1013.5 hPa 0 mm - 147 W/m² -
1788479127 18.33° C 43% 1013.6 hPa 0 mm - 127 W/m² -
1788478822 18.33° C 42% 1013.6 hPa 0 mm - 92 W/m² -
1788478518 18.33° C 42% 1013.7 hPa 0 mm - 108 W/m² -
1788478214 18.33° C 41% 1013.8 hPa 0 mm - 90 W/m² -
1788477909 18.33° C 43% 1014 hPa 0 mm - 95 W/m² -
1788477609 18.33° C 42% 1014.1 hPa 0 mm - 92 W/m² -
1788477303 18.33° C 44% 1014.1 hPa 0 mm - 106 W/m² -
1788476998 18.33° C 42% 1014.1 hPa 0 mm - 114 W/m² -
1788476694 18.33° C 42% 1014.4 hPa 0 mm - 97 W/m² -
1788476391 18.33° C 42% 1014.4 hPa 0 mm - 105 W/m² -
1788476085 18.89° C 42% 1014.4 hPa 0 mm - 110 W/m² -
1788475782 18.89° C 41% 1014.4 hPa 0 mm - 136 W/m² -
1788475477 18.89° C 42% 1014.5 hPa 0 mm - 150 W/m² -
1788475173 18.89° C 42% 1014.5 hPa 0 mm - 143 W/m² -
1788474872 18.89° C 41% 1014.4 hPa 0 mm - 184 W/m² -
1788474571 18.89° C 40% 1014.5 hPa 0 mm - 167 W/m² -
1788474267 18.89° C 40% 1014.3 hPa 0 mm - 199 W/m² -
1788473961 18.89° C 40% 1014.3 hPa 0 mm - 234 W/m² -
1788473660 18.89° C 40% 1014.6 hPa 0 mm - 199 W/m² -
1788473358 18.89° C 40% 1014.1 hPa 0 mm - 179 W/m² -
1788473052 18.89° C 40% 1014.5 hPa 0 mm - 216 W/m² -

* Rain latest hour (hover to see other rain measurements)
** Current wind speed in m/s (hover to see current wind gust speed)